Wind_Speed
13 19 11 7 7 9 12 10 12 13 15 15 15 15 16 17 16 18 17 17 17 18 16 15 15 17 16 17 17 17 16 16 15 16 15 15 15 14 12 6 9 12 12
20 16 9 7 8 10 13 11 12 14 16 17 17 17 16 16 17 17 17 18 18 18 16 17 18 17 17 17 16 16 17 16 16 16 18 16 14 12 12 13 14 11 11
19 13 9 7 7 10 14 13 13 14 15 16 16 16 16 15 16 17 18 18 18 17 17 17 18 17 17 17 16 15 15 15 14 15 18 15 12 12 12 13 13 11 10
19 12 9 8 8 11 13 14 13 14 14 16 16 15 16 16 17 17 17 18 17 16 14 16 17 17 16 14 14 14 16 13 9 10 9 15 11 11 11 11 11 9 9
16 16 11 10 11 11 14 13 14 14 14 15 15 15 14 15 15 16 17 16 17 16 14 15 15 13 14 13 12 14 15 14 13 13 13 11 10 9 9 9 10 7 8
15 15 13 12 13 12 13 13 14 14 14 16 13 15 14 15 15 14 15 15 16 15 16 17 15 12 13 12 11 13 11 8 4 10 10 10 11 8 7 6 4 5 5
17 16 14 13 13 13 13 14 15 15 15 14 13 13 14 14 14 14 13 13 14 14 15 15 14 13 12 11 10 12 12 10 10 11 11 10 9 9 8 7 7 7 6
17 17 15 14 14 12 13 13 14 14 13 13 13 12 13 13 14 12 12 12 12 13 14 13 12 13 12 11 11 9 9 8 10 10 11 9 10 9 7 7 6 6 6
24 14 15 14 13 13 14 13 13 13 13 13 13 13 13 12 12 12 11 11 11 11 11 11 11 11 10 9 9 10 11 12 9 8 10 9 9 7 6 7 7 7 7
14 13 20 14 15 14 12 14 13 13 14 13 13 12 14 15 15 12 12 11 9 9 9 9 9 8 9 9 8 10 10 8 7 10 10 8 8 7 6 7 7 7 8
13 11 17 17 14 14 14 12 13 14 14 15 13 10 13 13 11 11 10 10 8 8 7 7 6 4 4 9 9 5 3 2 9 10 8 7 6 7 6 7 7 8 9
14 19 15 14 16 15 15 13 12 12 12 11 9 6 7 13 13 12 10 10 8 7 6 5 5 3 2 9 2 1 4 8 10 10 8 6 5 6 5 6 7 9 9
15 15 18 15 12 14 15 15 12 13 11 10 9 7 11 12 7 9 7 8 7 4 6 1 5 3 3 1 3 8 9 9 9 9 6 5 5 5 6 6 8 9 10
15 13 14 13 12 12 13 13 14 15 12 13 9 10 7 8 5 3 8 7 7 7 7 7 4 3 3 2 4 7 7 8 8 9 5 5 4 5 6 7 7 8 9
15 13 15 13 9 9 5 10 11 11 11 13 10 6 4 6 4 5 3 3 7 8 7 5 3 4 4 5 7 7 8 7 6 7 5 5 4 5 5 6 7 8 10
14 13 14 14 12 11 11 8 10 8 12 11 9 7 2 2 2 7 6 9 6 3 4 4 0 3 4 7 6 7 7 6 5 3 6 4 3 4 5 7 9 11 12
15 13 14 13 13 10 11 11 9 10 11 9 9 6 3 3 2 4 5 4 7 3 4 2 2 1 4 8 7 6 6 5 6 4 2 1 4 6 6 7 11 12 12
16 14 14 15 14 12 13 9 8 6 7 9 10 7 5 4 4 3 8 8 11 9 7 6 6 4 4 6 7 6 4 5 4 4 2 4 5 6 5 7 12 13 12
16 15 14 15 14 11 11 9 9 7 7 8 7 7 5 4 2 5 4 5 7 9 9 6 6 3 2 4 7 4 4 4 6 7 3 4 4 5 7 6 10 8 11
17 15 15 14 15 11 11 7 9 8 6 8 7 8 6 5 2 7 5 4 9 3 12 10 3 1 3 3 7 7 4 5 5 7 7 6 5 5 8 8 9 2 8
18 17 16 11 14 11 13 12 9 11 8 8 6 6 4 3 3 6 6 9 7 12 15 3 4 4 3 0 5 6 8 9 11 9 7 5 4 7 7 7 7 7 8
19 18 16 15 12 12 12 9 4 2 11 9 8 7 5 4 3 3 4 5 4 5 5 3 7 12 3 2 14 6 6 10 13 12 7 3 3 8 7 5 9 8 8
19 19 18 16 14 13 11 9 5 5 5 5 8 9 8 5 4 2 1 6 6 6 8 1 3 10 11 3 5 13 5 4 27 10 10 6 2 6 8 7 6 7 6
20 18 18 17 15 13 11 11 11 10 11 11 5 4 7 6 5 4 3 2 3 8 5 2 1 7 10 17 1 3 8 4 7 4 14 4 2 5 7 6 4 3 5
20 20 19 18 16 14 13 8 11 14 4 11 7 10 5 7 6 6 4 4 3 6 0 5 5 6 7 9 14 9 1 7 4 6 8 9 10 7 5 5 9 7 1
21 19 19 19 17 16 15 13 12 9 7 2 6 4 9 8 9 9 6 5 4 6 4 5 4 6 7 8 8 8 10 11 4 10 9 10 7 4 6 2 3 8 10
Wind_Direction
120 123 121 108 93 86 80 86 95 103 106 107 103 99 96 97 96 93 93 93 95 92 91 92 96 101 102 104 105 103 103 103 103 102 99 96 98 93 71 86 108 86 87
139 135 123 106 102 101 98 99 101 101 102 102 102 99 98 99 98 94 95 93 94 91 92 93 99 101 105 106 107 104 106 110 111 112 106 96 93 95 93 95 91 89 87
137 141 127 115 111 112 107 105 104 99 101 102 101 98 98 96 95 96 95 95 94 95 94 96 95 96 97 101 103 104 108 113 112 116 111 91 92 92 91 89 86 88 90
143 145 129 124 114 107 114 113 106 104 102 102 101 100 100 97 94 97 100 98 96 93 98 99 97 97 98 100 103 107 110 104 99 139 135 107 94 89 88 94 89 85 78
137 130 125 121 119 118 117 114 107 105 105 104 102 102 103 95 97 102 100 99 94 91 93 102 104 101 100 97 100 103 111 102 79 80 88 55 94 94 89 88 69 80 85
125 112 118 118 119 120 113 112 111 110 112 111 107 103 102 100 102 102 100 100 96 93 90 98 101 102 101 95 103 109 104 88 97 96 96 71 89 96 97 96 100 89 73
139 121 115 118 121 124 118 111 112 112 110 112 111 106 99 102 106 108 108 103 99 94 92 100 99 101 98 100 108 110 107 88 105 98 94 92 91 86 84 81 75 67 60
121 129 118 121 126 126 121 114 111 111 110 112 111 107 103 104 106 107 110 108 101 96 94 102 101 93 92 93 97 108 118 107 90 87 90 93 92 85 83 77 70 58 45
122 125 129 129 131 124 118 113 109 108 109 112 114 110 107 108 109 111 111 109 105 102 95 96 96 91 92 89 85 92 111 99 98 99 98 88 88 84 76 66 57 44 34
116 128 127 137 129 127 118 119 116 113 111 111 115 120 112 104 97 103 105 111 112 105 101 96 93 92 88 80 82 112 118 105 102 97 88 96 97 85 71 58 45 34 23
127 142 128 131 128 122 125 124 117 121 121 110 110 128 141 120 108 106 120 113 111 114 112 96 89 95 120 89 80 106 123 148 97 98 97 99 93 83 62 41 28 22 16
145 119 136 133 140 142 132 139 139 145 143 123 117 134 135 80 98 110 103 100 106 110 103 94 92 92 248 201 163 152 179 108 95 93 104 102 88 74 55 35 27 19 11
136 133 126 129 129 140 147 148 152 139 127 123 151 133 123 132 130 162 127 141 127 133 164 126 263 259 56 90 71 92 110 118 111 98 109 100 83 62 43 30 24 14 6
136 143 134 141 131 160 151 177 147 136 136 144 127 124 153 111 73 55 87 112 148 112 149 214 89 91 103 134 105 100 111 111 108 110 106 89 71 50 34 25 15 5 357
150 154 136 141 135 121 156 134 118 129 150 119 147 152 96 108 102 111 139 93 97 174 136 131 125 103 113 117 121 117 106 103 109 111 113 96 76 47 24 5 351 345 342
152 153 138 146 140 148 121 122 142 180 121 154 140 141 162 85 135 128 156 138 150 119 117 126 207 140 132 113 116 114 119 120 104 130 128 113 68 18 354 339 332 329 328
156 151 151 147 151 152 135 155 164 151 155 149 134 147 145 160 164 142 118 204 135 119 168 152 224 182 124 119 112 125 111 122 125 129 154 159 255 275 337 331 337 332 335
151 157 165 153 151 155 143 164 155 134 150 150 136 149 145 148 149 207 198 169 167 182 168 151 196 177 155 153 142 159 133 151 159 192 244 299 323 337 285 341 339 340 351
148 161 168 149 153 153 148 160 137 164 184 156 138 143 152 144 174 293 248 189 239 162 134 149 146 185 142 179 181 170 190 181 200 195 260 284 270 314 321 319 331 329 5
153 161 166 165 146 155 166 160 162 183 160 155 154 128 151 142 164 268 257 287 293 292 106 72 32 143 236 242 273 148 222 222 235 242 253 257 247 304 314 334 324 245 358
160 164 166 158 156 170 172 184 163 179 175 172 168 121 163 153 165 267 282 303 4 79 66 101 185 211 234 67 259 222 230 236 234 239 240 267 327 303 325 337 325 338 339
169 172 176 162 167 191 194 220 151 185 174 176 173 157 195 169 192 212 312 317 3 86 89 7 332 321 215 264 289 302 237 201 295 218 200 261 297 314 316 336 332 329 328
171 180 183 189 186 202 244 203 179 165 126 168 150 177 186 199 206 264 274 326 2 312 133 56 335 306 313 124 299 318 17 61 270 57 15 236 56 319 333 328 330 0 359
169 183 184 187 188 200 218 217 178 191 193 184 187 177 149 201 210 213 230 250 276 317 354 301 276 314 326 317 194 248 344 352 332 350 203 351 96 20 34 327 30 95 33
174 178 182 188 194 203 198 220 187 233 161 173 185 135 209 178 227 223 214 232 253 262 58 314 325 312 309 306 340 341 277 281 268 329 320 340 89 182 85 341 338 337 217
176 180 180 182 191 197 192 194 213 244 240 146 200 182 211 212 200 211 215 228 257 273 275 267 266 276 292 322 322 320 300 332 310 318 328 329 351 101 7 193 0 345 3
Height
818 817 819 822 823 822 821 824 821 822 822 822 822 823 823 824 825 824 825 826 826 827 829 829 829 830 831 832 832 832 832 832 832 832 833 834 834 834 835 836 835 836 837
816 818 820 823 824 823 824 824 825 823 823 823 824 825 825 827 827 827 828 828 829 830 831 831 831 832 832 834 834 834 833 833 834 835 834 836 836 837 836 836 836 838 838
817 819 821 823 825 825 824 825 825 826 826 826 827 827 829 830 829 830 830 831 832 833 834 833 834 835 836 836 836 837 836 836 837 836 836 838 840 839 839 839 839 840 840
817 820 823 824 825 825 826 827 827 828 828 828 829 831 832 832 832 833 834 834 835 835 837 836 837 838 839 839 839 839 838 837 837 839 838 839 842 842 842 842 842 842 842
816 819 823 825 826 828 828 829 829 830 832 832 833 834 835 836 836 836 837 838 837 838 839 838 839 841 841 841 841 841 840 839 838 839 840 842 843 844 843 844 844 844 844
817 819 824 826 828 830 830 831 831 833 834 835 836 836 838 838 839 840 841 840 841 841 841 841 842 844 844 844 843 843 841 840 840 842 844 845 845 845 845 845 846 845 845
816 820 826 828 830 831 832 833 835 837 837 838 839 839 840 841 842 843 843 843 843 844 844 845 845 846 846 845 845 844 844 842 843 844 845 847 847 847 847 847 846 846 846
816 821 827 830 832 834 835 836 838 839 839 840 841 842 842 843 844 845 845 845 846 846 846 848 848 847 846 846 846 846 845 843 845 845 847 849 848 848 848 848 848 848 847
817 819 825 831 833 835 836 838 839 840 842 843 844 845 845 846 846 847 847 847 848 849 849 850 849 848 848 847 847 847 846 845 847 847 847 850 849 850 849 849 849 848 847
817 820 822 829 833 835 839 840 842 843 844 845 846 846 846 846 847 847 847 849 850 851 851 851 850 849 849 848 848 848 846 845 847 848 850 850 850 850 850 849 849 848 847
819 822 823 827 834 837 840 842 844 844 846 847 847 847 845 846 849 851 850 851 852 852 852 852 851 850 849 849 849 847 845 845 847 848 851 851 851 850 850 851 850 848 847
820 822 825 829 833 837 841 843 845 846 846 848 849 848 847 847 850 852 853 852 853 853 853 852 851 849 848 848 847 845 846 848 848 849 852 852 851 851 851 851 850 848 847
821 822 828 832 834 838 840 841 842 844 847 850 850 850 851 851 851 850 851 852 852 852 852 851 850 849 850 848 847 846 848 847 848 850 852 852 852 852 851 851 850 849 848
821 824 828 832 836 837 838 838 841 844 846 848 851 853 851 851 852 850 850 852 851 851 851 850 850 851 850 849 847 847 847 847 848 851 853 853 853 853 852 852 850 849 848
821 825 829 834 837 838 839 839 841 844 844 848 851 852 850 851 853 852 853 849 850 849 850 850 849 850 850 849 849 850 849 850 851 851 854 854 854 853 852 851 850 848 847
822 825 830 835 839 841 843 844 845 843 846 848 850 853 853 852 853 853 852 851 850 849 849 850 850 849 848 850 851 851 851 852 853 853 854 854 854 853 852 851 849 848 846
823 826 832 835 839 842 844 846 845 846 847 848 850 854 854 854 854 852 851 848 848 850 851 852 852 850 849 849 852 852 853 854 855 855 853 852 851 850 850 850 849 847 846
823 828 833 834 838 842 843 845 845 845 847 848 850 853 855 855 855 851 848 842 841 843 846 848 849 849 849 849 851 851 852 853 855 854 853 853 851 851 849 849 848 847 845
824 830 833 834 838 840 844 845 847 848 848 850 851 852 855 856 855 848 838 846 850 839 840 846 849 850 850 849 850 852 852 851 852 849 851 852 850 851 850 847 847 845 844
825 830 833 835 838 842 845 847 848 848 850 850 852 852 856 856 855 849 837 854 836 844 837 846 850 850 849 849 846 848 850 851 850 848 847 847 846 849 848 848 847 845 844
824 829 832 836 840 842 845 845 847 848 850 851 852 855 857 856 856 852 842 836 836 835 843 852 853 852 851 852 850 848 847 847 846 845 844 843 844 846 847 848 847 847 845
822 827 832 836 841 843 844 844 845 846 848 850 852 855 857 858 859 857 853 849 845 848 853 855 853 852 851 852 847 838 836 841 846 839 840 841 842 845 845 846 847 846 846
819 826 831 836 840 843 843 845 847 849 850 851 852 854 857 859 859 858 859 856 854 853 853 856 855 853 843 850 850 843 840 861 850 840 849 843 840 843 845 846 845 846 845
815 824 829 834 838 841 844 844 847 848 847 848 851 852 855 858 859 859 860 860 860 857 855 857 856 857 854 851 850 847 847 846 845 844 841 844 838 841 844 844 844 844 844
812 819 826 832 835 838 842 844 846 845 848 847 849 852 856 857 859 859 860 861 861 860 860 859 858 858 858 856 853 848 849 848 845 844 842 836 838 840 841 844 844 841 839
807 814 821 829 834 837 841 844 846 845 849 847 849 851 852 854 856 858 859 860 861 861 861 860 860 859 858 858 857 855 850 848 846 843 839 837 838 842 840 842 843 842 841